User: anonymous   Login
Location: Unspecified
(0.0000°N, 0.0000°E)
Time: 13:17:00
(UTC+00:00)
Language:

MUOS 5 - Orbit

View from above orbital plane
View from above orbital plane
View from above satellite
View from above satellite

Ground track
Ground track

The orbit data is extracted from the following two-line orbital elements,

1 41622U 16041A   21015.60602338 -.00000155  00000-0  00000-0 0  9996
2 41622   6.7885 305.3885 0198222 224.0794  58.9569  1.00270839 17241
Epoch (UTC): 15 January 2021 14:32:40
Eccentricity: 0.0198222
inclination: 6.7885°
perigee height: 34950 km
apogee height: 36622 km
right ascension of ascending node: 305.3885°
argument of perigee: 224.0794°
revolutions per day: 1.00270839
mean anomaly at epoch: 58.9569°
orbit number at epoch: 1724

The dashed part of the orbit path shows where the satellite is in the earth's shadow,  

DLR